Burien, Washington, United States
Lat: 47.47N, Lon: 122.35W
Wx Zone: WAZ508
Local Info
Past Weather Observations for Today

NOTE: This archive is for the closest National Weather Service station to Burien. Information may differ from the station used for current weather conditions.

Click here for Long-term Archive

Time Weather Temperature Dewpoint Humidity Pressure Winds Precip Visibility
14:53
Partly Cloudy
84°F / 29°C 55°F / 13°C 37% 30.06 in
(1018 mb)
NW 5.8 mph
(NW 9 kph)
- 10SM
13:53
Partly Cloudy
82°F / 28°C 61°F / 16°C 48% 30.09 in
(1019 mb)
W 6.9 mph
(W 11 kph)
- 9SM
12:53
Partly Cloudy
81°F / 27°C 61°F / 16°C 51% 30.09 in
(1019 mb)
W 8.1 mph
(W 13 kph)
- 10SM
11:53
Clear
75°F / 24°C 59°F / 15°C 57% 30.12 in
(1020 mb)
Variable 4.6 mph
(Variable 7 kph)
- 10SM
10:53
Clear
72°F / 22°C 59°F / 15°C 65% 30.12 in
(1020 mb)
Variable 4.6 mph
(Variable 7 kph)
- 10SM
10:07
Clear
70°F / 21°C 57°F / 14°C 64% 30.12 in
(1020 mb)
SSW 5.8 mph
(SSW 9 kph)
- 10SM
10:01
Clear
Hazy
70°F / 21°C 57°F / 14°C 64% 30.12 in
(1020 mb)
SSW 6.9 mph
(SSW 11 kph)
- 1 3/4SM
09:53
Partly Cloudy
Hazy
70°F / 21°C 57°F / 14°C 64% 30.12 in
(1020 mb)
Variable 5.8 mph
(Variable 9 kph)
- 6SM
09:09
Partly Cloudy
66°F / 19°C 57°F / 14°C 73% 30.15 in
(1021 mb)
Variable 5.8 mph
(Variable 9 kph)
- 7SM
08:53
Mostly Cloudy
64°F / 18°C 57°F / 14°C 78% 30.15 in
(1021 mb)
SSW 4.6 mph
(SSW 7 kph)
- 7SM
08:22
Mostly Cloudy
63°F / 17°C 57°F / 14°C 83% 30.15 in
(1021 mb)
SW 6.9 mph
(SW 11 kph)
- 7SM
07:53
Overcast
Hazy
63°F / 17°C 57°F / 14°C 83% 30.12 in
(1020 mb)
Variable 4.6 mph
(Variable 7 kph)
- 2SM
07:28
Overcast
Fog And Mist
61°F / 16°C 57°F / 14°C 88% 30.12 in
(1020 mb)
Variable 3.5 mph
(Variable 6 kph)
- 1 1/2SM
06:53
Overcast
Fog And Mist
61°F / 16°C 57°F / 14°C 88% 30.12 in
(1020 mb)
S 5.8 mph
(S 9 kph)
- 1/2SM
05:53
Overcast
Fog And Mist
61°F / 16°C 57°F / 14°C 88% 30.12 in
(1020 mb)
SW 8.1 mph
(SW 13 kph)
- 1/2SM
04:53
Overcast
Fog And Mist
59°F / 15°C 57°F / 14°C 94% 30.12 in
(1020 mb)
SW 6.9 mph
(SW 11 kph)
- 1/2SM
03:53
Mostly Cloudy
Fog And Mist
59°F / 15°C 57°F / 14°C 94% 30.12 in
(1020 mb)
SSE 5.8 mph
(SSE 9 kph)
- 6SM
03:33
Mostly Cloudy
61°F / 16°C 57°F / 14°C 88% 30.09 in
(1019 mb)
SW 8.1 mph
(SW 13 kph)
- 10SM
02:53
Partly Cloudy
61°F / 16°C 57°F / 14°C 88% 30.09 in
(1019 mb)
SSE 5.8 mph
(SSE 9 kph)
- 10SM
02:30
Partly Cloudy
61°F / 16°C 57°F / 14°C 88% 30.09 in
(1019 mb)
SW 4.6 mph
(SW 7 kph)
- 10SM
01:53
Clear
61°F / 16°C 57°F / 14°C 88% 30.09 in
(1019 mb)
SW 3.5 mph
(SW 6 kph)
- 10SM
00:53
Clear
63°F / 17°C 57°F / 14°C 83% 30.09 in
(1019 mb)
SSE 5.8 mph
(SSE 9 kph)
- 10SM
Time Weather Temperature Dewpoint Humidity Pressure Winds Precip Visibility


Weather for websites

WeatherForYou.com, LLC is not responsible for any damages or problems caused by this service. Current weather conditions are obtained from the closest station including government and personal stations which may have varying degrees of accuracy. Weather forecasts are derived from the NOAA NDFD. Like all things, this site belongs to Jesus Christ... He just trusts us to maintain it. If you have any questions or comments email webmaster@weatherforyou.com

Copyright © 2015, WeatherForYou.com LLC. All rights reserved.